Total_Precipitation_Accumulation
1.39 1.35 1.26 1.24 1.15 1.22 1.36 1.47 1.49 1.53 1.55 1.47 1.32 1.45 1.56 1.71 1.83 1.93 2.21 2.50 2.84 3.42 3.76 3.59 3.20 2.84 2.69 2.69 2.80 2.77 2.87 2.99 2.89 2.84 2.80 2.69 2.61 2.49 2.47 2.46 2.44 2.40 2.46
1.33 1.35 1.32 1.36 1.30 1.30 1.40 1.41 1.34 1.48 1.66 1.58 1.39 1.37 1.44 1.58 1.75 1.73 1.86 2.12 2.45 2.86 3.66 4.03 3.86 3.53 3.36 3.09 3.23 3.12 2.96 2.78 2.66 2.69 2.66 2.64 2.64 2.49 2.39 2.30 2.29 2.18 2.17
1.16 1.26 1.28 1.27 1.30 1.42 1.47 1.52 1.35 1.40 1.45 1.45 1.45 1.40 1.35 1.42 1.51 1.58 1.54 1.62 1.82 2.25 2.95 3.65 4.09 4.06 3.96 3.81 3.67 3.35 3.04 2.73 2.62 2.61 2.58 2.45 2.49 2.43 2.28 2.27 2.18 2.20 2.14
1.06 1.23 1.27 1.23 1.23 1.42 1.57 1.66 1.56 1.56 1.54 1.52 1.54 1.50 1.39 1.43 1.36 1.44 1.48 1.44 1.66 1.68 2.14 2.80 3.36 3.59 3.83 3.92 3.80 3.46 3.11 2.70 2.53 2.60 2.60 2.37 2.33 2.32 2.20 2.26 2.15 2.06 2.02
1.16 1.33 1.44 1.44 1.41 1.46 1.52 1.52 1.62 1.66 1.66 1.66 1.57 1.53 1.50 1.45 1.48 1.37 1.44 1.50 1.46 1.58 1.80 2.09 2.55 2.91 3.20 3.37 3.57 3.67 3.44 2.92 2.61 2.63 2.65 2.37 2.26 2.34 2.19 2.14 2.08 1.90 1.81
1.50 1.62 1.62 1.69 1.72 1.66 1.69 1.67 1.74 1.73 1.66 1.73 1.58 1.47 1.47 1.39 1.52 1.61 1.54 1.59 1.54 1.51 1.88 2.10 2.16 2.20 2.61 2.86 3.14 3.50 3.64 3.30 3.03 2.82 2.76 2.56 2.35 2.45 2.19 2.10 2.08 1.82 1.71
1.77 2.02 1.96 2.02 2.08 2.02 2.00 2.00 2.26 2.22 1.96 1.78 1.88 1.74 1.57 1.45 1.63 1.71 1.65 1.74 1.80 1.89 2.12 2.14 1.99 1.89 1.85 2.09 2.38 2.93 3.59 3.54 3.34 3.03 2.88 2.66 2.38 2.28 2.03 1.98 2.01 1.89 1.70
1.64 1.81 2.08 2.22 2.18 2.32 2.42 2.39 2.77 2.93 2.44 2.01 2.16 2.44 2.18 1.99 1.80 1.67 1.72 1.79 1.94 2.15 2.23 2.10 1.92 1.72 1.62 1.68 1.66 2.14 2.86 3.28 3.35 3.17 2.94 2.65 2.40 2.19 2.06 2.07 2.05 2.08 1.87
1.58 1.73 1.88 2.02 2.06 2.21 2.40 2.52 2.84 3.40 3.17 2.50 2.32 2.78 2.59 2.40 2.27 1.93 1.75 1.76 1.85 2.12 2.39 2.33 2.08 1.83 1.62 1.67 1.62 1.83 2.18 2.53 3.11 3.31 3.17 2.86 2.61 2.32 2.21 2.28 2.08 2.23 2.23
1.45 1.59 1.72 1.83 1.96 2.01 2.20 2.29 2.43 3.02 3.45 3.10 2.80 2.50 2.20 2.18 2.39 2.39 2.01 1.81 1.80 1.93 2.15 2.15 2.03 1.97 1.82 1.70 1.60 1.59 1.85 2.11 2.73 3.24 3.48 3.33 3.01 2.67 2.62 2.76 2.43 2.29 2.26
1.53 1.54 1.72 1.77 1.78 1.87 2.02 2.36 2.63 2.93 3.19 3.22 3.20 2.98 2.67 2.39 2.06 2.35 2.43 2.09 1.94 1.90 1.95 2.00 1.91 1.90 1.89 1.83 1.91 1.68 1.64 1.86 2.21 2.83 3.49 3.77 3.51 3.19 3.19 3.23 2.79 2.58 2.46
1.69 1.69 1.74 1.77 1.75 1.79 1.92 2.18 2.50 2.73 3.05 3.30 3.27 3.06 2.93 2.81 2.54 2.48 2.37 2.21 2.23 2.08 1.95 1.89 1.75 1.74 1.88 2.05 2.04 2.03 1.74 1.63 1.73 2.07 2.63 3.17 3.43 3.45 3.59 3.58 3.27 3.22 3.02
1.62 1.65 1.72 1.83 1.90 1.96 2.09 2.27 2.45 2.40 2.59 3.02 3.06 2.92 2.86 2.70 2.63 2.70 2.64 2.33 2.19 1.93 1.82 1.77 1.65 1.72 1.70 1.78 2.05 2.24 1.83 1.55 1.40 1.65 1.89 2.19 2.58 3.01 3.46 3.70 3.71 3.71 3.51
1.58 1.52 1.55 1.65 1.76 1.95 2.01 2.09 2.16 2.13 2.23 2.48 2.59 2.79 2.91 2.70 2.62 2.52 2.51 2.58 2.34 2.04 1.87 1.72 1.56 1.56 1.55 1.62 1.89 2.08 1.76 1.56 1.22 1.21 1.35 1.63 1.89 2.22 2.63 3.10 3.50 3.69 3.74
1.32 1.24 1.25 1.31 1.38 1.45 1.56 1.72 1.83 1.93 2.00 2.13 2.26 2.40 2.58 2.71 2.66 2.50 2.49 2.50 2.49 2.29 2.07 1.90 1.69 1.47 1.52 1.63 1.86 1.68 1.59 1.59 1.34 1.18 1.13 1.27 1.48 1.64 1.87 2.11 2.44 2.80 3.11
1.29 1.19 1.14 1.11 1.09 1.05 1.10 1.29 1.49 1.60 1.71 1.87 2.06 2.20 2.25 2.33 2.54 2.55 2.42 2.44 2.39 2.26 2.11 1.87 1.75 1.56 1.67 1.60 1.78 1.58 1.60 1.69 1.40 1.26 1.16 1.18 1.29 1.27 1.25 1.37 1.48 1.69 2.11
1.32 1.28 1.18 1.12 1.20 1.18 1.13 1.19 1.22 1.29 1.37 1.52 1.67 1.81 1.97 2.23 2.54 2.61 2.58 2.48 2.41 2.29 2.07 1.83 1.61 1.51 1.81 1.89 1.80 1.67 1.65 1.62 1.41 1.34 1.21 1.12 1.16 1.17 1.12 1.05 1.07 1.21 1.45
0.93 1.04 1.16 1.09 1.06 1.08 1.10 1.16 1.15 1.18 1.23 1.35 1.46 1.60 1.79 2.09 2.44 2.66 2.76 2.65 2.50 2.40 2.26 2.09 1.74 1.48 1.59 1.91 2.02 1.94 1.75 1.60 1.46 1.42 1.27 1.14 1.11 1.12 1.09 1.01 0.98 1.01 1.08
0.75 0.76 0.86 0.86 0.95 1.04 1.07 1.11 1.12 1.15 1.19 1.27 1.42 1.49 1.56 1.78 1.99 2.19 2.38 2.52 2.49 2.48 2.45 2.21 1.90 1.62 1.54 1.70 1.95 1.94 1.88 1.87 1.62 1.56 1.53 1.37 1.24 1.19 1.14 1.01 0.98 0.98 1.01
0.83 0.83 0.94 0.98 0.94 0.94 0.98 1.07 1.11 1.09 1.08 1.10 1.17 1.27 1.37 1.45 1.64 1.79 1.92 2.14 2.34 2.59 2.64 2.48 2.21 1.88 1.76 1.65 1.74 1.90 1.97 1.92 1.83 1.64 1.61 1.47 1.45 1.38 1.35 1.19 1.04 0.95 0.97
0.93 0.90 0.99 1.08 1.13 1.09 1.07 1.14 1.10 1.09 1.10 1.07 1.10 1.09 1.17 1.23 1.34 1.54 1.57 1.80 2.12 2.41 2.50 2.57 2.45 2.13 1.86 1.72 1.48 1.58 1.84 2.05 2.05 1.98 1.97 1.71 1.55 1.39 1.35 1.36 1.31 1.16 1.00
0.87 0.80 0.80 0.85 0.94 1.01 1.30 1.25 1.04 0.98 1.04 1.08 1.11 1.09 1.12 1.09 1.07 1.16 1.31 1.43 1.72 1.97 2.11 2.19 2.21 2.05 1.83 1.70 1.65 1.61 1.68 1.83 1.87 1.76 1.84 1.93 1.83 1.67 1.55 1.43 1.46 1.50 1.39
0.78 0.73 0.72 0.68 0.72 0.92 1.08 0.90 0.86 0.86 0.98 1.09 1.17 1.20 1.14 1.08 1.12 1.12 1.16 1.19 1.25 1.46 1.69 1.91 1.94 1.83 1.89 1.80 1.73 1.63 1.64 1.63 1.60 1.69 1.78 1.88 1.88 1.79 1.71 1.70 1.70 1.55 1.48
0.72 0.67 0.70 0.75 0.75 0.82 0.95 0.78 0.73 0.77 0.97 1.10 1.11 1.08 1.16 1.17 1.21 1.26 1.18 1.23 1.16 1.16 1.27 1.30 1.46 1.71 1.89 2.06 2.04 1.93 1.93 1.84 1.73 1.80 1.82 1.82 1.70 1.64 1.57 1.58 1.67 1.50 1.37
0.79 0.75 0.83 0.87 0.82 0.79 0.90 0.83 0.82 0.88 1.01 1.11 1.07 1.11 1.21 1.25 1.43 1.47 1.34 1.39 1.32 1.28 1.28 1.40 1.49 1.63 1.76 1.87 2.03 2.07 2.02 2.00 1.85 1.74 1.71 1.68 1.57 1.59 1.58 1.48 1.45 1.47 1.35
0.74 0.79 0.79 0.74 0.73 0.81 0.95 0.90 0.94 1.02 1.12 1.24 1.22 1.24 1.49 1.48 1.49 1.41 1.31 1.45 1.42 1.27 1.19 1.23 1.29 1.38 1.44 1.56 1.71 1.75 1.91 2.05 1.96 1.78 1.52 1.50 1.49 1.54 1.62 1.50 1.40 1.31 1.28